Location: Newark
(32.9533°N, 113.4900°W)
Time: 07:14:45
(UTC+00:00)

Envisat - Visible Passes

Search period start: 23 October 2019 00:00
Search period end: 02 November 2019 00:00
Orbit: 764 x 766 km, 98.1° (Epoch: 23 October)

Date Brightness Start Highest point End Pass type
(mag) Time Alt. Az. Time Alt. Az. Time Alt. Az.
23 Oct 4.2 02:14:26 10° S 02:19:15 44° W 02:24:07 10° NNW visible
24 Oct 2.9 01:37:26 10° SSE 01:42:29 75° ENE 01:47:34 10° N visible
25 Oct 5.3 02:40:49 10° SSW 02:44:51 24° W 02:48:56 10° NW visible
25 Oct 6.3 13:15:52 10° ENE 13:18:45 15° E 13:21:38 10° SE visible
26 Oct 3.6 02:02:59 10° S 02:07:58 58° W 02:12:59 10° NNW visible
27 Oct 3.0 01:26:18 10° SSE 01:31:15 58° ENE 01:36:14 10° N visible
27 Oct 6.1 03:08:27 10° WSW 03:10:34 12° W 03:12:40 10° WNW visible
28 Oct 4.9 02:29:05 10° SSW 02:33:32 31° W 02:38:01 10° NW visible
28 Oct 6.6 13:05:53 10° ENE 13:07:24 11° E 13:08:54 10° ESE visible
29 Oct 3.2 01:51:38 10° S 01:56:42 76° WSW 02:01:47 10° NNW visible
30 Oct 3.3 01:15:15 10° SE 01:20:02 44° ENE 01:24:51 10° N visible
30 Oct 5.8 02:56:02 10° SW 02:59:11 17° W 03:02:23 10° NW visible
31 Oct 4.4 02:17:30 10° SSW 02:22:14 40° W 02:27:00 10° NNW visible
01 Nov 2.9 01:40:23 10° SSE 01:45:26 83° ENE 01:50:32 10° N visible
